| time (UTC) | temp C | wind direction | speed KPH | gust KPH | rain 1hr cm | rain 24hr cm | rain mn cm | humidity % | barometer mb |
| 20260507040342 | 11 | 161 | 3.2 | 8.0 | 0.00 | 0.00 | 0.00 | 85 | 1021.6 |
| 20260507035346 | 11 | 179 | 1.6 | 12.9 | 0.00 | 0.00 | 0.00 | 85 | 1021.6 |
| 20260507034411 | 11 | 143 | 3.2 | 11.3 | 0.00 | 0.00 | 0.00 | 85 | 1021.6 |
| 20260507033344 | 11 | 244 | 1.6 | 8.0 | 0.00 | 0.00 | 0.00 | 82 | 1021.4 |
| 20260507032349 | 12 | 146 | 3.2 | 8.0 | 0.00 | 0.00 | 0.00 | 83 | 1021.4 |
| 20260507031403 | 12 | 54 | 1.6 | 4.8 | 0.00 | 0.00 | 0.00 | 82 | 1021.3 |
| 20260507030347 | 12 | 102 | 1.6 | 4.8 | 0.00 | 0.00 | 0.00 | 82 | 1021.2 |
| 20260507025351 | 12 | 104 | 1.6 | 6.4 | 0.00 | 0.00 | 0.00 | 81 | 1021.3 |
| 20260507024345 | 12 | 186 | 1.6 | 3.2 | 0.00 | 0.00 | 0.00 | 81 | 1021.3 |
| 20260507023350 | 12 | 135 | 1.6 | 4.8 | 0.00 | 0.00 | 0.00 | 80 | 1021.2 |
| 20260507022343 | 13 | 181 | 1.6 | 3.2 | 0.00 | 0.00 | 0.00 | 78 | 1021.3 |
| 20260507021348 | 13 | 148 | 1.6 | 4.8 | 0.00 | 0.00 | 0.00 | 79 | 1021.3 |
| 20260507020351 | 13 | 100 | 1.6 | 4.8 | 0.00 | 0.00 | 0.00 | 77 | 1021.3 |
| 20260507015346 | 13 | 82 | 3.2 | 8.0 | 0.00 | 0.00 | 0.00 | 77 | 1021.3 |
| 20260507014350 | 13 | 305 | 1.6 | 4.8 | 0.00 | 0.00 | 0.00 | 76 | 1021.2 |
| 20260507013404 | 13 | 107 | 1.6 | 4.8 | 0.00 | 0.00 | 0.00 | 74 | 1021.2 |
| 20260507012348 | 13 | 25 | 1.6 | 4.8 | 0.00 | 0.00 | 0.00 | 74 | 1021.1 |
| 20260507011343 | 13 | 143 | 3.2 | 6.4 | 0.00 | 0.00 | 0.00 | 74 | 1021.1 |
| 20260507010347 | 14 | 123 | 1.6 | 4.8 | 0.00 | 0.00 | 0.00 | 73 | 1021.1 |
| 20260507005351 | 14 | 50 | 1.6 | 3.2 | 0.00 | 0.00 | 0.00 | 71 | 1021.2 |
| 20260507004345 | 14 | 311 | 1.6 | 6.4 | 0.00 | 0.00 | 0.00 | 71 | 1021.2 |
| 20260507003410 | 15 | 346 | 3.2 | 4.8 | 0.00 | 0.00 | 0.00 | 69 | 1021.2 |
| 20260507002343 | 15 | 4 | 1.6 | 4.8 | 0.00 | 0.00 | 0.00 | 68 | 1021.1 |
| 20260507001348 | 15 | 283 | 1.6 | 6.4 | 0.00 | 0.00 | 0.00 | 68 | 1021.1 |
| 20260507000405 | 15 | 347 | 1.6 | 6.4 | 0.00 | 0.00 | 0.00 | 66 | 1021.1 |
| 20260506235347 | 15 | 1 | 1.6 | 11.3 | 0.00 | 0.00 | 0.00 | 66 | 1021.2 |
| 20260506234352 | 16 | 49 | 1.6 | 16.1 | 0.00 | 0.00 | 0.00 | 66 | 1021.1 |
| 20260506233345 | 16 | 323 | 1.6 | 6.4 | 0.00 | 0.00 | 0.00 | 66 | 1021.1 |
| 20260506232411 | 16 | 68 | 3.2 | 8.0 | 0.00 | 0.00 | 0.00 | 66 | 1021.1 |
| 20260506231344 | 16 | 184 | 3.2 | 8.0 | 0.00 | 0.00 | 0.00 | 67 | 1021.0 |
| 20260506230349 | 15 | 25 | 3.2 | 12.9 | 0.00 | 0.00 | 0.00 | 68 | 1021.2 |
| 20260506225342 | 15 | 346 | 4.8 | 9.7 | 0.00 | 0.00 | 0.00 | 66 | 1021.2 |
| 20260506224347 | 15 | 310 | 3.2 | 9.7 | 0.00 | 0.00 | 0.00 | 69 | 1021.3 |
| 20260506223351 | 16 | 94 | 4.8 | 12.9 | 0.00 | 0.00 | 0.00 | 66 | 1021.2 |
| 20260506222345 | 16 | 98 | 4.8 | 8.0 | 0.00 | 0.00 | 0.00 | 66 | 1021.2 |
| 20260506221350 | 16 | 142 | 3.2 | 12.9 | 0.00 | 0.00 | 0.00 | 64 | 1021.2 |
| 20260506220404 | 16 | 51 | 3.2 | 12.9 | 0.00 | 0.00 | 0.00 | 65 | 1021.3 |
| 20260506215348 | 15 | 357 | 3.2 | 9.7 | 0.00 | 0.00 | 0.00 | 64 | 1021.3 |
| 20260506214403 | 15 | 176 | 3.2 | 9.7 | 0.00 | 0.00 | 0.00 | 65 | 1021.2 |
| 20260506213348 | 16 | 33 | 3.2 | 6.4 | 0.00 | 0.00 | 0.00 | 65 | 1021.2 |
| 20260506212342 | 16 | 118 | 1.6 | 9.7 | 0.00 | 0.00 | 0.00 | 66 | 1021.3 |
| 20260506211406 | 15 | 200 | 3.2 | 9.7 | 0.00 | 0.00 | 0.00 | 64 | 1021.4 |
| 20260506210351 | 16 | 66 | 0.0 | 6.4 | 0.00 | 0.00 | 0.00 | 66 | 1021.3 |
| 20260506205344 | 16 | 186 | 1.6 | 11.3 | 0.00 | 0.00 | 0.00 | 64 | 1021.3 |
| 20260506204348 | 15 | 68 | 4.8 | 9.7 | 0.00 | 0.00 | 0.00 | 64 | 1021.2 |
| 20260506203342 | 15 | 257 | 1.6 | 9.7 | 0.00 | 0.00 | 0.00 | 66 | 1021.3 |
| 20260506202407 | 16 | 103 | 3.2 | 6.4 | 0.00 | 0.00 | 0.00 | 66 | 1021.2 |
| 20260506201351 | 15 | 47 | 1.6 | 9.7 | 0.00 | 0.00 | 0.00 | 67 | 1021.2 |
| 20260506200345 | 15 | 65 | 1.6 | 9.7 | 0.00 | 0.00 | 0.00 | 68 | 1021.3 |
| 20260506195350 | 15 | 124 | 3.2 | 6.4 | 0.00 | 0.00 | 0.00 | 69 | 1021.2 |
| 20260506194404 | 14 | 171 | 3.2 | 8.0 | 0.00 | 0.00 | 0.00 | 70 | 1021.2 |
| 20260506193349 | 15 | 264 | 3.2 | 6.4 | 0.00 | 0.00 | 0.00 | 70 | 1021.2 |
| 20260506192342 | 13 | 54 | 3.2 | 9.7 | 0.00 | 0.00 | 0.00 | 70 | 1021.2 |
| 20260506191347 | 14 | 116 | 4.8 | 9.7 | 0.00 | 0.00 | 0.00 | 71 | 1021.1 |
| 20260506190341 | 13 | 318 | 3.2 | 8.0 | 0.00 | 0.00 | 0.00 | 71 | 1021.1 |
| 20260506185346 | 14 | 46 | 3.2 | 9.7 | 0.00 | 0.00 | 0.00 | 70 | 1021.0 |
| 20260506184411 | 13 | 6 | 1.6 | 9.7 | 0.00 | 0.00 | 0.00 | 71 | 1020.9 |
| 20260506183344 | 13 | 337 | 1.6 | 6.4 | 0.00 | 0.00 | 0.00 | 71 | 1020.9 |
| 20260506182348 | 13 | 333 | 0.0 | 9.7 | 0.00 | 0.00 | 0.00 | 74 | 1020.8 |
| 20260506181342 | 13 | 292 | 0.0 | 9.7 | 0.00 | 0.00 | 0.00 | 76 | 1020.8 |
| 20260506180346 | 13 | 87 | 3.2 | 11.3 | 0.00 | 0.00 | 0.00 | 75 | 1020.8 |
| 20260506175351 | 13 | 337 | 3.2 | 6.4 | 0.00 | 0.00 | 0.00 | 75 | 1020.7 |
| 20260506174345 | 12 | 270 | 3.2 | 9.7 | 0.00 | 0.00 | 0.00 | 75 | 1020.7 |
| 20260506173349 | 12 | 89 | 4.8 | 11.3 | 0.00 | 0.00 | 0.00 | 75 | 1020.6 |
| 20260506172404 | 12 | 339 | 1.6 | 8.0 | 0.00 | 0.00 | 0.00 | 76 | 1020.6 |
| 20260506171347 | 12 | 184 | 3.2 | 8.0 | 0.00 | 0.00 | 0.00 | 76 | 1020.6 |
| 20260506170341 | 12 | 272 | 1.6 | 6.4 | 0.00 | 0.00 | 0.00 | 78 | 1020.5 |
| 20260506165346 | 12 | 40 | 3.2 | 6.4 | 0.00 | 0.00 | 0.00 | 77 | 1020.4 |
| 20260506164351 | 12 | 294 | 1.6 | 6.4 | 0.00 | 0.00 | 0.00 | 79 | 1020.2 |
| 20260506163345 | 12 | 8 | 3.2 | 6.4 | 0.00 | 0.00 | 0.00 | 80 | 1020.3 |
| 20260506162349 | 11 | 100 | 1.6 | 4.8 | 0.00 | 0.00 | 0.00 | 83 | 1020.3 |
| 20260506161343 | 11 | 314 | 1.6 | 6.4 | 0.00 | 0.00 | 0.00 | 85 | 1020.3 |
| 20260506160347 | 11 | 81 | 1.6 | 4.8 | 0.00 | 0.00 | 0.00 | 88 | 1020.3 |
| 20260506155352 | 11 | 37 | 1.6 | 3.2 | 0.00 | 0.00 | 0.00 | 89 | 1020.5 |
| 20260506154344 | 11 | 145 | 3.2 | 8.0 | 0.00 | 0.00 | 0.00 | 89 | 1020.5 |
| 20260506153349 | 11 | 204 | 1.6 | 4.8 | 0.00 | 0.00 | 0.00 | 89 | 1020.5 |
| 20260506152342 | 10 | 314 | 0.0 | 4.8 | 0.00 | 0.00 | 0.00 | 89 | 1020.4 |
| 20260506151346 | 10 | 106 | 1.6 | 8.0 | 0.00 | 0.00 | 0.00 | 90 | 1020.3 |
| 20260506150352 | 10 | 53 | 1.6 | 4.8 | 0.00 | 0.00 | 0.00 | 90 | 1020.0 |
| 20260506145345 | 10 | 307 | 1.6 | 3.2 | 0.00 | 0.00 | 0.00 | 91 | 1020.0 |
| 20260506144349 | 10 | 306 | 0.0 | 3.2 | 0.00 | 0.00 | 0.00 | 92 | 1019.8 |
| 20260506143343 | 10 | 0.0 | 0.0 | 0.00 | 0.00 | 0.00 | 93 | 1019.8 | |
| 20260506142348 | 10 | 79 | 1.6 | 4.8 | 0.00 | 0.00 | 0.00 | 93 | 1019.7 |
| 20260506141342 | 10 | 347 | 1.6 | 4.8 | 0.00 | 0.00 | 0.00 | 93 | 1019.8 |
| 20260506140347 | 10 | 285 | 0.0 | 1.6 | 0.00 | 0.00 | 0.00 | 93 | 1019.6 |
| 20260506135351 | 10 | 93 | 1.6 | 3.2 | 0.00 | 0.00 | 0.00 | 94 | 1019.5 |
| 20260506134345 | 10 | 359 | 0.0 | 1.6 | 0.00 | 0.00 | 0.00 | 93 | 1019.4 |
| 20260506133350 | 10 | 339 | 1.6 | 3.2 | 0.00 | 0.00 | 0.00 | 93 | 1019.4 |
| 20260506132343 | 10 | 358 | 0.0 | 1.6 | 0.00 | 0.00 | 0.00 | 94 | 1019.4 |
| 20260506131346 | 10 | 184 | 1.6 | 4.8 | 0.00 | 0.00 | 0.00 | 95 | 1019.3 |
| 20260506130351 | 10 | 86 | 1.6 | 4.8 | 0.00 | 0.00 | 0.00 | 95 | 1019.2 |
| 20260506125405 | 10 | 193 | 0.0 | 3.2 | 0.00 | 0.00 | 0.00 | 96 | 1019.2 |
| 20260506124349 | 10 | 182 | 0.0 | 3.2 | 0.00 | 0.00 | 0.00 | 95 | 1019.1 |
| 20260506123344 | 9 | 90 | 0.0 | 6.4 | 0.00 | 0.00 | 0.00 | 95 | 1019.1 |
| 20260506122349 | 9 | 88 | 0.0 | 4.8 | 0.00 | 0.00 | 0.00 | 95 | 1019.2 |
| 20260506121342 | 9 | 126 | 1.6 | 4.8 | 0.00 | 0.00 | 0.00 | 97 | 1019.2 |
| 20260506120347 | 10 | 149 | 3.2 | 8.0 | 0.00 | 0.00 | 0.00 | 97 | 1019.1 |
| 20260506115341 | 10 | 90 | 0.0 | 3.2 | 0.00 | 0.00 | 0.00 | 96 | 1019.1 |
| 20260506114347 | 10 | 50 | 0.0 | 3.2 | 0.00 | 0.00 | 0.00 | 95 | 1019.0 |
| 20260506113351 | 10 | 46 | 1.6 | 3.2 | 0.00 | 0.00 | 0.00 | 96 | 1018.8 |
| 20260506112345 | 10 | 0.0 | 3.2 | 0.00 | 0.00 | 0.00 | 96 | 1018.8 | |
| 20260506111409 | 10 | 0.0 | 6.4 | 0.00 | 0.00 | 0.00 | 97 | 1018.7 | |
| 20260506110344 | 10 | 178 | 1.6 | 3.2 | 0.00 | 0.00 | 0.00 | 98 | 1018.6 |
| 20260506105348 | 10 | 278 | 0.0 | 1.6 | 0.00 | 0.00 | 0.00 | 98 | 1018.5 |
| 20260506104342 | 10 | 5 | 0.0 | 3.2 | 0.00 | 0.00 | 0.00 | 98 | 1018.4 |
| 20260506103346 | 10 | 0.0 | 0.0 | 0.00 | 0.00 | 0.00 | 97 | 1018.2 | |
| 20260506102350 | 10 | 0.0 | 1.6 | 0.00 | 0.00 | 0.00 | 97 | 1018.1 | |
| 20260506101344 | 10 | 343 | 0.0 | 3.2 | 0.00 | 0.00 | 0.00 | 99 | 1018.0 |
| 20260506100349 | 10 | 27 | 0.0 | 1.6 | 0.00 | 0.00 | 0.00 | 99 | 1017.9 |
| 20260506095343 | 10 | 90 | 0.0 | 1.6 | 0.00 | 0.00 | 0.00 | 99 | 1018.0 |
| 20260506094347 | 10 | 113 | 1.6 | 1.6 | 0.00 | 0.00 | 0.00 | 99 | 1017.9 |
| 20260506093411 | 9 | 0.0 | 1.6 | 0.00 | 0.00 | 0.00 | 100 | 1018.0 | |
| 20260506092345 | 9 | 0.0 | 0.0 | 0.00 | 0.00 | 0.00 | 99 | 1018.0 | |
| 20260506091349 | 9 | 59 | 1.6 | 3.2 | 0.00 | 0.00 | 0.00 | 100 | 1018.0 |
| 20260506090343 | 9 | 50 | 0.0 | 3.2 | 0.00 | 0.00 | 0.00 | 100 | 1018.0 |
| 20260506085347 | 9 | 180 | 0.0 | 3.2 | 0.00 | 0.00 | 0.00 | 100 | 1018.0 |
| 20260506084341 | 9 | 240 | 0.0 | 1.6 | 0.00 | 0.00 | 0.00 | 100 | 1017.9 |
| 20260506083346 | 8 | 90 | 0.0 | 4.8 | 0.00 | 0.00 | 0.00 | 100 | 1017.9 |
| 20260506082351 | 8 | 139 | 0.0 | 6.4 | 0.00 | 0.00 | 0.00 | 100 | 1017.8 |
| 20260506081405 | 8 | 213 | 1.6 | 6.4 | 0.00 | 0.00 | 0.00 | 100 | 1017.8 |
| 20260506080349 | 8 | 90 | 1.6 | 3.2 | 0.00 | 0.00 | 0.00 | 100 | 1017.7 |
| 20260506073342 | 7 | 0.0 | 0.0 | 0.00 | 0.00 | 0.00 | 97 | 1017.4 | |
| 20260506072347 | 7 | 0.0 | 0.0 | 0.00 | 0.00 | 0.00 | 97 | 1017.3 | |
| 20260506071351 | 7 | 0.0 | 0.0 | 0.00 | 0.00 | 0.00 | 96 | 1017.2 | |
| 20260506070345 | 7 | 0.0 | 0.0 | 0.00 | 0.00 | 0.00 | 96 | 1017.2 | |
| 20260506062351 | 7 | 0.0 | 0.0 | 0.00 | 0.00 | 0.00 | 92 | 1016.9 | |
| 20260506061345 | 7 | 0.0 | 0.0 | 0.00 | 0.00 | 0.00 | 93 | 1016.9 | |
| 20260506060349 | 7 | 135 | 0.0 | 1.6 | 0.00 | 0.00 | 0.00 | 93 | 1016.9 |
| 20260506051350 | 8 | 145 | 1.6 | 3.2 | 0.00 | 0.00 | 0.00 | 91 | 1016.9 |
| 20260506050344 | 8 | 126 | 1.6 | 3.2 | 0.00 | 0.00 | 0.00 | 90 | 1016.9 |
| 20260506044423 | 9 | 165 | 1.6 | 3.2 | 0.00 | 0.00 | 0.00 | 89 | 1016.7 |
| 20260506043348 | 9 | 284 | 0.0 | 3.2 | 0.00 | 0.00 | 0.00 | 91 | 1016.7 |
| 20260506042341 | 9 | 179 | 1.6 | 3.2 | 0.00 | 0.00 | 0.00 | 89 | 1016.5 |
| 20260506041426 | 10 | 5 | 0.0 | 1.6 | 0.00 | 0.00 | 0.00 | 88 | 1016.3 |